Time,TemperatureF,DewpointF,PressureIn,WindDirection,WindDirectionDegrees,WindSpeedMPH,WindSpeedGustMPH,Humidity,HourlyPrecipIn,Conditions,Clouds,dailyrainin,SolarRadiationWatts/m^2,SoftwareType,DateUTC
2013-06-01 00:00:00,66.2,64.7,30.05,ENE,68,2.0,4.0,95,0.00,CLR,,0.00,0.0,WeatherDisplay:10.37,2013-05-31 14:00:00,
2013-06-01 00:05:00,66.2,64.7,30.05,ENE,68,0.0,3.0,95,0.00,CLR,,0.00,0.0,WeatherDisplay:10.37,2013-05-31 14:05:00,
2013-06-01 00:10:00,65.8,64.7,30.05,ENE,68,2.0,4.0,96,0.00,CLR,,0.00,0.0,WeatherDisplay:10.37,2013-05-31 14:10:00,
2013-06-01 00:15:00,65.6,64.4,30.05,ENE,68,0.0,3.0,96,0.00,CLR,,0.00,0.0,WeatherDisplay:10.37,2013-05-31 14:15:00,
2013-06-01 00:20:00,65.3,64.1,30.05,ENE,68,0.0,0.0,96,0.00,CLR,,0.00,0.0,WeatherDisplay:10.37,2013-05-31 14:20:00,
2013-06-01 00:25:00,65.3,64.1,30.05,ENE,68,0.0,0.0,96,0.00,CLR,,0.00,0.0,WeatherDisplay:10.37,2013-05-31 14:25:00,
2013-06-01 00:30:00,65.3,64.1,30.05,ENE,68,0.0,0.0,96,0.00,CLR,,0.00,0.0,WeatherDisplay:10.37,2013-05-31 14:30:00,
2013-06-01 00:40:00,64.9,63.8,30.05,ENE,68,0.0,0.0,96,0.00,CLR,,0.00,0.0,WeatherDisplay:10.37,2013-05-31 14:40:00,
2013-06-01 00:45:00,64.8,63.9,30.05,ENE,68,0.0,0.0,97,0.00,CLR,,0.00,0.0,WeatherDisplay:10.37,2013-05-31 14:45:00,
2013-06-01 00:50:00,64.8,63.9,30.05,ENE,68,0.0,0.0,97,0.00,CLR,,0.00,0.0,WeatherDisplay:10.37,2013-05-31 14:50:00,
2013-06-01 00:55:00,68.5,67.7,30.00,East,84,1.0,3.0,97,0.00,CLR,,0.00,0.0,WeatherDisplay:10.37,2013-05-31 14:55:00,
2013-06-01 01:00:00,64.6,63.7,30.04,ENE,78,0.0,0.0,97,0.00,CLR,,0.00,0.0,WeatherDisplay:10.37,2013-05-31 15:00:00,
2013-06-01 01:05:00,64.7,63.8,30.04,ENE,68,3.0,7.0,97,0.00,CLR,,0.00,0.0,WeatherDisplay:10.37,2013-05-31 15:05:00,
2013-06-01 01:10:00,65.3,64.4,30.04,ENE,68,3.0,6.0,97,0.00,CLR,,0.00,0.0,WeatherDisplay:10.37,2013-05-31 15:10:00,
2013-06-01 01:15:00,66.0,64.8,30.04,ENE,68,5.0,7.0,96,0.00,CLR,,0.00,0.0,WeatherDisplay:10.37,2013-05-31 15:15:00,
2013-06-01 01:20:00,66.9,64.8,30.04,ENE,68,5.0,9.0,93,0.00,CLR,,0.00,0.0,WeatherDisplay:10.37,2013-05-31 15:20:00,
2013-06-01 01:25:00,66.9,64.2,30.04,ENE,68,5.0,7.0,91,0.00,CLR,,0.00,0.0,WeatherDisplay:10.37,2013-05-31 15:25:00,
2013-06-01 01:30:00,66.9,63.9,30.04,ENE,68,3.0,9.0,90,0.00,CLR,,0.00,0.0,WeatherDisplay:10.37,2013-05-31 15:30:00,
2013-06-01 01:35:00,66.9,63.6,30.03,ENE,68,7.0,12.0,89,0.00,CLR,,0.00,0.0,WeatherDisplay:10.37,2013-05-31 15:35:00,
2013-06-01 01:40:00,67.5,63.8,30.03,ENE,68,5.0,9.0,88,0.00,CLR,,0.00,0.0,WeatherDisplay:10.37,2013-05-31 15:40:00,
2013-06-01 01:45:00,67.6,63.6,30.03,ENE,68,5.0,10.0,87,0.00,CLR,,0.00,0.0,WeatherDisplay:10.37,2013-05-31 15:45:00,
2013-06-01 01:50:00,67.6,63.6,30.03,ENE,68,2.0,9.0,87,0.00,CLR,,0.00,0.0,WeatherDisplay:10.37,2013-05-31 15:50:00,
2013-06-01 01:55:00,67.6,63.6,30.03,ENE,68,2.0,9.0,87,0.00,CLR,,0.00,0.0,WeatherDisplay:10.37,2013-05-31 15:55:00,
2013-06-01 02:00:00,67.8,63.8,30.03,ENE,68,6.0,11.0,87,0.00,CLR,,0.00,0.0,WeatherDisplay:10.37,2013-05-31 16:00:00,
2013-06-01 02:05:00,67.7,63.7,30.03,ENE,68,3.0,7.0,87,0.00,CLR,,0.00,0.0,WeatherDisplay:10.37,2013-05-31 16:05:00,
2013-06-01 02:10:00,67.3,63.6,30.03,ENE,68,1.0,4.0,88,0.00,CLR,,0.00,0.0,WeatherDisplay:10.37,2013-05-31 16:10:00,
2013-06-01 02:15:00,66.9,63.6,30.02,ENE,68,0.0,1.0,89,0.00,CLR,,0.00,0.0,WeatherDisplay:10.37,2013-05-31 16:15:00,
2013-06-01 02:20:00,66.9,63.6,30.02,ENE,68,0.0,0.0,89,0.00,CLR,,0.00,0.0,WeatherDisplay:10.37,2013-05-31 16:20:00,
2013-06-01 02:25:00,66.9,63.6,30.02,ENE,68,0.0,0.0,89,0.00,CLR,,0.00,0.0,WeatherDisplay:10.37,2013-05-31 16:25:00,
2013-06-01 02:30:00,66.7,63.7,30.02,ENE,68,0.0,0.0,90,0.00,CLR,,0.00,0.0,WeatherDisplay:10.37,2013-05-31 16:30:00,
2013-06-01 02:35:00,66.6,63.5,30.02,ENE,68,0.0,0.0,90,0.00,CLR,,0.00,0.0,WeatherDisplay:10.37,2013-05-31 16:35:00,
2013-06-01 02:40:00,66.2,63.5,30.02,ENE,68,0.0,0.0,91,0.00,CLR,,0.00,0.0,WeatherDisplay:10.37,2013-05-31 16:40:00,
2013-06-01 02:45:00,65.8,63.5,30.01,ENE,68,0.0,0.0,92,0.00,CLR,,0.00,0.0,WeatherDisplay:10.37,2013-05-31 16:45:00,
2013-06-01 02:50:00,65.3,63.2,30.02,ENE,68,0.0,0.0,93,0.00,CLR,,0.00,0.0,WeatherDisplay:10.37,2013-05-31 16:50:00,
2013-06-01 02:55:00,64.8,62.8,30.01,ENE,68,0.0,0.0,93,0.00,CLR,,0.00,0.0,WeatherDisplay:10.37,2013-05-31 16:55:00,
2013-06-01 03:00:00,64.6,62.8,30.01,ENE,68,0.0,0.0,94,0.00,CLR,,0.00,0.0,WeatherDisplay:10.37,2013-05-31 17:00:00,
2013-06-01 03:05:00,64.4,62.9,30.01,ENE,68,0.0,0.0,95,0.00,CLR,,0.00,0.0,WeatherDisplay:10.37,2013-05-31 17:05:00,
2013-06-01 03:10:00,64.0,62.3,30.01,ENE,68,0.0,0.0,94,0.00,CLR,,0.00,0.0,WeatherDisplay:10.37,2013-05-31 17:10:00,
2013-06-01 03:15:00,63.9,62.1,30.01,ENE,68,2.0,6.0,94,0.00,CLR,,0.00,0.0,WeatherDisplay:10.37,2013-05-31 17:15:00,
2013-06-01 03:20:00,63.9,62.4,30.01,ENE,68,2.0,5.0,95,0.00,CLR,,0.00,0.0,WeatherDisplay:10.37,2013-05-31 17:20:00,
2013-06-01 03:25:00,65.0,63.8,30.01,East,83,5.0,14.0,96,0.00,CLR,,0.00,0.0,WeatherDisplay:10.37,2013-05-31 17:25:00,
2013-06-01 03:30:00,66.3,64.2,30.02,East,89,7.0,16.0,93,0.00,CLR,,0.00,0.0,WeatherDisplay:10.37,2013-05-31 17:30:00,
2013-06-01 03:35:00,67.3,63.6,30.02,East,90,5.0,13.0,88,0.00,CLR,,0.00,0.0,WeatherDisplay:10.37,2013-05-31 17:35:00,
2013-06-01 03:40:00,67.3,63.3,30.01,East,90,5.0,11.0,87,0.00,CLR,,0.00,0.0,WeatherDisplay:10.37,2013-05-31 17:40:00,
2013-06-01 03:45:00,66.9,62.6,30.02,East,90,5.0,8.0,86,0.00,CLR,,0.00,0.0,WeatherDisplay:10.37,2013-05-31 17:45:00,
2013-06-01 03:50:00,66.9,62.6,30.02,East,87,2.0,6.0,86,0.00,CLR,,0.00,0.0,WeatherDisplay:10.37,2013-05-31 17:50:00,
2013-06-01 03:55:00,66.7,62.4,30.02,ENE,72,0.0,3.0,86,0.00,CLR,,0.00,0.0,WeatherDisplay:10.37,2013-05-31 17:55:00,
2013-06-01 04:00:00,66.1,61.8,30.01,NE,48,1.0,2.0,86,0.00,CLR,,0.00,0.0,WeatherDisplay:10.37,2013-05-31 18:00:00,
2013-06-01 04:05:00,65.8,62.2,30.02,NE,45,2.0,4.0,88,0.00,CLR,,0.00,0.0,WeatherDisplay:10.37,2013-05-31 18:05:00,
2013-06-01 04:10:00,65.2,61.8,30.02,NE,45,0.0,3.0,89,0.00,CLR,,0.00,0.0,WeatherDisplay:10.37,2013-05-31 18:10:00,
2013-06-01 04:15:00,64.5,61.5,30.01,NE,45,0.0,0.0,90,0.00,CLR,,0.00,0.0,WeatherDisplay:10.37,2013-05-31 18:15:00,
2013-06-01 04:20:00,63.9,60.9,30.01,NE,45,0.0,0.0,90,0.00,CLR,,0.00,0.0,WeatherDisplay:10.37,2013-05-31 18:20:00,
2013-06-01 04:25:00,63.3,60.6,30.01,NE,45,0.0,1.0,91,0.00,CLR,,0.00,0.0,WeatherDisplay:10.37,2013-05-31 18:25:00,
2013-06-01 04:30:00,63.6,61.2,30.01,NE,45,2.0,4.0,92,0.00,CLR,,0.00,0.0,WeatherDisplay:10.37,2013-05-31 18:30:00,
2013-06-01 04:35:00,64.1,61.7,30.01,NE,54,3.0,6.0,92,0.00,CLR,,0.00,0.0,WeatherDisplay:10.37,2013-05-31 18:35:00,
2013-06-01 04:40:00,64.9,62.6,30.02,ENE,64,3.0,6.0,92,0.00,CLR,,0.00,0.0,WeatherDisplay:10.37,2013-05-31 18:40:00,
2013-06-01 04:45:00,65.3,62.3,30.01,ENE,68,2.0,5.0,90,0.00,CLR,,0.00,0.0,WeatherDisplay:10.37,2013-05-31 18:45:00,
2013-06-01 04:50:00,65.1,62.1,30.01,ENE,68,1.0,2.0,90,0.00,CLR,,0.00,0.0,WeatherDisplay:10.37,2013-05-31 18:50:00,
2013-06-01 04:55:00,64.5,61.1,30.02,ENE,68,1.0,2.0,89,0.00,CLR,,0.00,0.0,WeatherDisplay:10.37,2013-05-31 18:55:00,
2013-06-01 05:00:00,64.0,61.0,30.02,ENE,68,0.0,2.0,90,0.00,CLR,,0.00,0.0,WeatherDisplay:10.37,2013-05-31 19:00:00,
2013-06-01 05:05:00,64.0,61.3,30.02,ENE,68,1.0,2.0,91,0.00,CLR,,0.00,0.0,WeatherDisplay:10.37,2013-05-31 19:05:00,
2013-06-01 05:10:00,64.0,61.4,30.02,ENE,68,1.0,2.0,91,0.00,CLR,,0.00,0.0,WeatherDisplay:10.37,2013-05-31 19:10:00,
2013-06-01 05:15:00,63.9,61.5,30.02,ENE,68,0.0,1.0,92,0.00,CLR,,0.00,0.0,WeatherDisplay:10.37,2013-05-31 19:15:00,
2013-06-01 05:20:00,63.9,61.5,30.02,ENE,68,0.0,2.0,92,0.00,CLR,,0.00,0.0,WeatherDisplay:10.37,2013-05-31 19:20:00,
2013-06-01 05:25:00,64.0,61.7,30.02,ENE,68,0.0,2.0,92,0.00,CLR,,0.00,0.0,WeatherDisplay:10.37,2013-05-31 19:25:00,
2013-06-01 05:30:00,64.0,61.7,30.03,ENE,68,0.0,1.0,92,0.00,CLR,,0.00,0.0,WeatherDisplay:10.37,2013-05-31 19:30:00,
2013-06-01 05:40:00,64.9,63.5,30.03,East,85,1.0,4.0,95,0.00,CLR,,0.00,0.0,WeatherDisplay:10.37,2013-05-31 19:40:00,
2013-06-01 05:45:00,65.5,64.0,30.03,East,84,0.0,2.0,95,0.00,CLR,,0.00,0.0,WeatherDisplay:10.37,2013-05-31 19:45:00,
2013-06-01 05:50:00,65.7,63.9,30.03,ENE,69,0.0,2.0,94,0.00,CLR,,0.00,0.0,WeatherDisplay:10.37,2013-05-31 19:50:00,
2013-06-01 05:55:00,65.8,63.8,30.03,ENE,68,0.0,0.0,93,0.00,CLR,,0.00,0.0,WeatherDisplay:10.37,2013-05-31 19:55:00,
2013-06-01 06:00:00,65.8,63.5,30.03,ENE,68,0.0,0.0,92,0.00,CLR,,0.00,0.0,WeatherDisplay:10.37,2013-05-31 20:00:00,
2013-06-01 06:05:00,65.8,63.5,30.03,ENE,68,0.0,4.0,92,0.00,CLR,,0.00,0.0,WeatherDisplay:10.37,2013-05-31 20:05:00,
2013-06-01 06:10:00,66.2,63.2,30.03,ENE,68,2.0,5.0,90,0.00,CLR,,0.00,0.0,WeatherDisplay:10.37,2013-05-31 20:10:00,
2013-06-01 06:15:00,66.5,63.4,30.03,ENE,60,2.0,6.0,90,0.00,CLR,,0.00,0.0,WeatherDisplay:10.37,2013-05-31 20:15:00,
2013-06-01 06:20:00,66.7,63.4,30.03,NE,49,1.0,5.0,89,0.00,CLR,,0.00,0.0,WeatherDisplay:10.37,2013-05-31 20:20:00,
2013-06-01 06:25:00,66.7,63.4,30.03,NE,45,2.0,4.0,89,0.00,CLR,,0.00,0.0,WeatherDisplay:10.37,2013-05-31 20:25:00,
2013-06-01 06:30:00,66.7,63.4,30.03,NE,45,1.0,5.0,89,0.00,CLR,,0.00,0.0,WeatherDisplay:10.37,2013-05-31 20:30:00,
2013-06-01 06:40:00,66.7,63.7,30.03,NE,45,2.0,4.0,90,0.00,CLR,,0.00,0.0,WeatherDisplay:10.37,2013-05-31 20:40:00,
2013-06-01 06:45:00,66.4,63.7,30.04,NE,45,0.0,3.0,91,0.00,CLR,,0.00,1.5,WeatherDisplay:10.37,2013-05-31 20:45:00,
2013-06-01 06:50:00,66.2,63.5,30.04,NE,45,0.0,0.0,91,0.00,CLR,,0.00,4.7,WeatherDisplay:10.37,2013-05-31 20:50:00,
2013-06-01 06:55:00,66.2,63.8,30.04,NE,45,0.0,0.0,92,0.00,CLR,,0.00,7.1,WeatherDisplay:10.37,2013-05-31 20:55:00,
2013-06-01 07:00:00,65.8,64.1,30.04,NE,45,0.0,0.0,94,0.00,BKN,,0.00,12.0,WeatherDisplay:10.37,2013-05-31 21:00:00,
2013-06-01 07:05:00,65.8,64.4,30.04,NE,45,0.0,0.0,95,0.00,BKN,,0.00,19.9,WeatherDisplay:10.37,2013-05-31 21:05:00,
2013-06-01 07:10:00,65.8,64.4,30.04,NE,45,0.0,0.0,95,0.00,BKN,,0.00,31.1,WeatherDisplay:10.37,2013-05-31 21:10:00,
2013-06-01 07:15:00,65.8,64.4,30.04,NE,45,0.0,0.0,95,0.00,BKN,,0.00,41.3,WeatherDisplay:10.37,2013-05-31 21:15:00,
2013-06-01 07:20:00,65.8,64.4,30.04,NE,45,0.0,1.0,95,0.00,BKN,,0.00,34.9,WeatherDisplay:10.37,2013-05-31 21:20:00,
2013-06-01 07:25:00,66.2,64.7,30.04,NE,45,0.0,0.0,95,0.00,SCT,,0.00,36.1,WeatherDisplay:10.37,2013-05-31 21:25:00,
2013-06-01 07:30:00,66.4,64.9,30.04,NE,45,1.0,3.0,95,0.00,CLR,,0.00,50.3,WeatherDisplay:10.37,2013-05-31 21:30:00,
2013-06-01 07:35:00,66.4,65.2,30.05,NE,45,0.0,4.0,96,0.00,CLR,,0.00,45.2,WeatherDisplay:10.37,2013-05-31 21:35:00,
2013-06-01 07:40:00,66.6,65.4,30.05,NE,45,0.0,0.0,96,0.00,CLR,,0.00,34.0,WeatherDisplay:10.37,2013-05-31 21:40:00,
2013-06-01 07:45:00,66.7,65.6,30.05,NE,45,1.0,4.0,96,0.00,CLR,,0.00,20.0,WeatherDisplay:10.37,2013-05-31 21:45:00,
2013-06-01 07:55:00,66.9,65.7,30.05,NE,45,0.0,3.0,96,0.00,CLR,,0.00,54.5,WeatherDisplay:10.37,2013-05-31 21:55:00,
2013-06-01 08:00:00,67.1,65.9,30.06,NE,45,2.0,6.0,96,0.00,OVC,,0.00,56.0,WeatherDisplay:10.37,2013-05-31 22:00:00,
2013-06-01 08:05:00,67.3,66.1,30.05,NE,45,5.0,6.0,96,0.00,OVC,,0.00,65.4,WeatherDisplay:10.37,2013-05-31 22:05:00,
2013-06-01 08:10:00,67.5,66.3,30.06,NE,45,3.0,5.0,96,0.00,OVC,,0.00,71.6,WeatherDisplay:10.37,2013-05-31 22:10:00,
2013-06-01 08:15:00,67.6,66.4,30.06,NE,45,1.0,6.0,96,0.00,OVC,,0.00,108.2,WeatherDisplay:10.37,2013-05-31 22:15:00,
2013-06-01 08:25:00,74.2,64.6,30.02,ENE,62,6.0,15.0,72,0.00,OVC,,0.00,124.0,WeatherDisplay:10.37,2013-05-31 22:25:00,
2013-06-01 08:30:00,68.4,66.3,30.06,NE,51,5.0,8.0,93,0.00,OVC,,0.00,156.3,WeatherDisplay:10.37,2013-05-31 22:30:00,
2013-06-01 08:35:00,68.8,66.4,30.07,NE,45,3.0,6.0,92,0.00,OVC,,0.00,179.9,WeatherDisplay:10.37,2013-05-31 22:35:00,
2013-06-01 08:40:00,69.4,65.7,30.07,NE,45,2.0,8.0,88,0.00,OVC,,0.00,150.3,WeatherDisplay:10.37,2013-05-31 22:40:00,
2013-06-01 08:45:00,69.8,65.4,30.07,NE,47,3.0,7.0,86,0.00,OVC,,0.00,142.5,WeatherDisplay:10.37,2013-05-31 22:45:00,
2013-06-01 08:50:00,70.1,65.0,30.07,NE,49,2.0,8.0,84,0.00,OVC,,0.00,222.3,WeatherDisplay:10.37,2013-05-31 22:50:00,
2013-06-01 08:55:00,70.7,64.9,30.07,ENE,61,7.0,13.0,82,0.00,OVC,,0.00,289.6,WeatherDisplay:10.37,2013-05-31 22:55:00,
2013-06-01 09:00:00,71.2,64.8,30.08,ENE,68,6.0,10.0,80,0.00,OVC,,0.00,273.7,WeatherDisplay:10.37,2013-05-31 23:00:00,
2013-06-01 09:05:00,71.4,64.2,30.08,ENE,68,6.0,8.0,78,0.00,OVC,,0.00,281.7,WeatherDisplay:10.37,2013-05-31 23:05:00,
2013-06-01 09:10:00,72.7,64.7,30.08,ENE,68,7.0,14.0,76,0.00,OVC,,0.00,328.4,WeatherDisplay:10.37,2013-05-31 23:10:00,
2013-06-01 09:20:00,72.7,63.2,30.08,East,90,15.0,22.0,72,0.00,OVC,,0.00,782.0,WeatherDisplay:10.37,2013-05-31 23:20:00,
2013-06-01 09:25:00,72.6,62.7,30.08,East,90,12.0,20.0,71,0.00,OVC,,0.00,342.7,WeatherDisplay:10.37,2013-05-31 23:25:00,
2013-06-01 09:30:00,72.4,62.8,30.08,East,90,15.0,21.0,72,0.00,OVC,,0.00,819.0,WeatherDisplay:10.37,2013-05-31 23:30:00,
2013-06-01 09:40:00,73.8,62.1,30.08,East,90,9.0,20.0,67,0.00,OVC,,0.00,814.5,WeatherDisplay:10.37,2013-05-31 23:40:00,
2013-06-01 09:45:00,74.8,63.1,30.08,East,90,12.0,20.0,67,0.00,OVC,,0.00,837.5,WeatherDisplay:10.37,2013-05-31 23:45:00,
2013-06-01 09:50:00,74.7,62.1,30.08,ESE,113,15.0,22.0,65,0.00,OVC,,0.00,883.3,WeatherDisplay:10.37,2013-05-31 23:50:00,
2013-06-01 09:55:00,74.8,62.3,30.09,SE,127,14.0,21.0,65,0.00,OVC,,0.00,876.9,WeatherDisplay:10.37,2013-05-31 23:55:00,
2013-06-01 10:05:00,75.3,61.8,30.09,ESE,102,15.0,25.0,63,0.00,OVC,,0.00,456.8,WeatherDisplay:10.37,2013-06-01 00:05:00,
2013-06-01 10:10:00,74.3,61.8,30.08,NE,55,13.0,20.0,65,0.00,OVC,,0.00,717.2,WeatherDisplay:10.37,2013-06-01 00:10:00,
2013-06-01 10:15:00,74.8,62.3,30.08,NE,50,14.0,20.0,65,0.00,OVC,,0.00,1076.7,WeatherDisplay:10.37,2013-06-01 00:15:00,
2013-06-01 10:20:00,75.4,62.4,30.08,East,90,15.0,27.0,64,0.00,OVC,,0.00,492.6,WeatherDisplay:10.37,2013-06-01 00:20:00,
2013-06-01 10:25:00,74.8,62.2,30.08,SE,124,16.0,21.0,65,0.00,OVC,,0.00,1089.6,WeatherDisplay:10.37,2013-06-01 00:25:00,
2013-06-01 10:30:00,75.6,63.0,30.08,SE,134,17.0,24.0,65,0.00,OVC,,0.00,420.5,WeatherDisplay:10.37,2013-06-01 00:30:00,
2013-06-01 10:35:00,74.7,62.5,30.08,ESE,123,17.0,24.0,66,0.00,OVC,,0.00,1147.6,WeatherDisplay:10.37,2013-06-01 00:35:00,
2013-06-01 10:40:00,74.2,62.1,30.08,East,94,16.0,21.0,66,0.00,OVC,,0.00,746.8,WeatherDisplay:10.37,2013-06-01 00:40:00,
2013-06-01 10:45:00,74.3,62.2,30.07,East,94,9.0,23.0,66,0.00,OVC,,0.00,393.7,WeatherDisplay:10.37,2013-06-01 00:45:00,
2013-06-01 10:50:00,75.4,62.8,30.07,East,98,15.0,20.0,65,0.00,OVC,,0.00,325.0,WeatherDisplay:10.37,2013-06-01 00:50:00,
2013-06-01 10:55:00,74.7,63.0,30.07,ESE,105,8.0,18.0,67,0.00,OVC,,0.00,1094.8,WeatherDisplay:10.37,2013-06-01 00:55:00,
2013-06-01 11:00:00,76.3,63.3,30.07,East,99,12.0,17.0,64,0.00,OVC,,0.00,913.6,WeatherDisplay:10.37,2013-06-01 01:00:00,
2013-06-01 11:05:00,76.2,62.7,30.06,East,90,9.0,17.0,63,0.00,OVC,,0.00,813.9,WeatherDisplay:10.37,2013-06-01 01:05:00,
2013-06-01 11:10:00,75.4,61.9,30.06,East,90,10.0,17.0,63,0.00,OVC,,0.00,252.8,WeatherDisplay:10.37,2013-06-01 01:10:00,
2013-06-01 11:15:00,75.2,62.2,30.06,East,90,8.0,13.0,64,0.00,OVC,,0.00,273.6,WeatherDisplay:10.37,2013-06-01 01:15:00,
2013-06-01 11:20:00,74.8,62.3,30.06,East,90,9.0,14.0,65,0.00,OVC,,0.00,544.9,WeatherDisplay:10.37,2013-06-01 01:20:00,
2013-06-01 11:25:00,75.2,62.6,30.06,East,90,14.0,20.0,65,0.00,OVC,,0.00,358.0,WeatherDisplay:10.37,2013-06-01 01:25:00,
2013-06-01 11:30:00,74.8,62.3,30.05,East,90,7.0,17.0,65,0.00,OVC,,0.00,354.7,WeatherDisplay:10.37,2013-06-01 01:30:00,
2013-06-01 11:35:00,74.8,62.7,30.05,East,88,9.0,16.0,66,0.00,OVC,,0.00,1229.9,WeatherDisplay:10.37,2013-06-01 01:35:00,
2013-06-01 11:40:00,76.0,62.9,30.05,ENE,75,7.0,17.0,64,0.00,OVC,,0.00,297.5,WeatherDisplay:10.37,2013-06-01 01:40:00,
2013-06-01 11:45:00,76.8,63.3,30.05,ENE,73,10.0,15.0,63,0.00,OVC,,0.00,346.9,WeatherDisplay:10.37,2013-06-01 01:45:00,
2013-06-01 11:50:00,76.6,63.1,30.05,East,85,10.0,15.0,63,0.00,OVC,,0.00,1195.8,WeatherDisplay:10.37,2013-06-01 01:50:00,
2013-06-01 11:55:00,77.5,63.9,30.04,East,90,5.0,16.0,63,0.00,OVC,,0.00,1289.3,WeatherDisplay:10.37,2013-06-01 01:55:00,
2013-06-01 12:00:00,78.5,63.4,30.04,ENE,66,9.0,15.0,60,0.00,OVC,,0.00,257.1,WeatherDisplay:10.37,2013-06-01 02:00:00,
2013-06-01 12:05:00,77.2,63.2,30.04,NE,45,7.0,13.0,62,0.00,OVC,,0.00,236.2,WeatherDisplay:10.37,2013-06-01 02:05:00,
2013-06-01 12:10:00,76.8,63.7,30.04,NE,45,7.0,11.0,64,0.00,OVC,,0.00,1233.4,WeatherDisplay:10.37,2013-06-01 02:10:00,
2013-06-01 12:15:00,78.6,64.5,30.03,NE,45,6.0,9.0,62,0.00,OVC,,0.00,1288.7,WeatherDisplay:10.37,2013-06-01 02:15:00,
2013-06-01 12:20:00,79.9,63.8,30.03,NE,45,3.0,13.0,58,0.00,OVC,,0.00,1347.0,WeatherDisplay:10.37,2013-06-01 02:20:00,
2013-06-01 12:25:00,81.2,64.5,30.03,NE,45,3.0,9.0,57,0.00,OVC,,0.00,1416.5,WeatherDisplay:10.37,2013-06-01 02:25:00,
2013-06-01 12:30:00,81.5,63.7,30.03,NE,45,3.0,13.0,55,0.00,OVC,,0.00,1306.3,WeatherDisplay:10.37,2013-06-01 02:30:00,
2013-06-01 12:35:00,81.3,63.0,30.02,NE,45,7.0,13.0,54,0.00,OVC,,0.00,1342.7,WeatherDisplay:10.37,2013-06-01 02:35:00,
2013-06-01 12:40:00,80.4,64.8,30.02,NE,45,6.0,13.0,59,0.00,OVC,,0.00,484.7,WeatherDisplay:10.37,2013-06-01 02:40:00,
2013-06-01 12:45:00,81.1,64.5,30.02,NE,45,10.0,14.0,57,0.00,OVC,,0.00,890.2,WeatherDisplay:10.37,2013-06-01 02:45:00,
2013-06-01 12:50:00,80.8,64.1,30.02,NE,45,8.0,13.0,57,0.00,OVC,,0.00,1403.5,WeatherDisplay:10.37,2013-06-01 02:50:00,
2013-06-01 12:55:00,80.8,64.1,30.01,NE,45,7.0,13.0,57,0.00,OVC,,0.00,1295.9,WeatherDisplay:10.37,2013-06-01 02:55:00,
2013-06-01 13:00:00,80.2,64.6,30.01,NE,45,6.0,14.0,59,0.00,OVC,,0.00,1242.7,WeatherDisplay:10.37,2013-06-01 03:00:00,
2013-06-01 13:10:00,80.1,64.9,30.00,NE,45,7.0,18.0,60,0.00,OVC,,0.00,1202.4,WeatherDisplay:10.37,2013-06-01 03:10:00,
2013-06-01 13:15:00,79.9,64.8,30.00,NE,45,13.0,20.0,60,0.00,OVC,,0.00,1212.4,WeatherDisplay:10.37,2013-06-01 03:15:00,
2013-06-01 13:20:00,79.5,64.9,30.00,NE,45,14.0,20.0,61,0.00,OVC,,0.00,1294.2,WeatherDisplay:10.37,2013-06-01 03:20:00,
2013-06-01 13:25:00,79.2,64.6,29.99,NE,45,6.0,17.0,61,0.00,OVC,,0.00,767.7,WeatherDisplay:10.37,2013-06-01 03:25:00,
2013-06-01 13:30:00,79.8,64.6,29.99,NE,45,8.0,16.0,60,0.00,OVC,,0.00,683.7,WeatherDisplay:10.37,2013-06-01 03:30:00,
2013-06-01 13:35:00,79.5,65.4,29.99,NE,45,7.0,13.0,62,0.00,OVC,,0.00,990.1,WeatherDisplay:10.37,2013-06-01 03:35:00,
2013-06-01 13:40:00,80.1,66.8,29.99,NE,45,12.0,17.0,64,0.00,OVC,,0.00,732.3,WeatherDisplay:10.37,2013-06-01 03:40:00,
2013-06-01 13:45:00,78.1,66.7,29.99,NE,45,9.0,17.0,68,0.00,OVC,,0.00,765.6,WeatherDisplay:10.37,2013-06-01 03:45:00,
2013-06-01 13:50:00,77.4,66.8,29.99,NE,45,7.0,17.0,70,0.00,OVC,,0.00,651.7,WeatherDisplay:10.37,2013-06-01 03:50:00,
2013-06-01 13:55:00,76.4,67.5,29.99,NE,45,7.0,14.0,74,0.00,OVC,,0.00,458.1,WeatherDisplay:10.37,2013-06-01 03:55:00,
2013-06-01 14:05:00,75.2,67.1,29.99,NE,45,7.0,12.0,76,0.00,OVC,,0.00,369.1,WeatherDisplay:10.37,2013-06-01 04:05:00,
2013-06-01 14:10:00,74.7,67.3,29.99,NE,45,7.0,15.0,78,0.00,OVC,,0.00,469.4,WeatherDisplay:10.37,2013-06-01 04:10:00,
2013-06-01 14:15:00,74.6,67.7,29.99,NE,45,7.0,11.0,79,0.00,OVC,,0.00,718.5,WeatherDisplay:10.37,2013-06-01 04:15:00,
2013-06-01 14:20:00,75.5,67.8,29.99,NE,45,9.0,16.0,77,0.00,OVC,,0.00,480.3,WeatherDisplay:10.37,2013-06-01 04:20:00,
2013-06-01 14:25:00,74.5,67.2,29.99,NE,45,9.0,16.0,78,0.00,OVC,,0.00,1053.6,WeatherDisplay:10.37,2013-06-01 04:25:00,
2013-06-01 14:30:00,75.2,67.5,29.99,NE,45,7.0,17.0,77,0.00,OVC,,0.00,619.1,WeatherDisplay:10.37,2013-06-01 04:30:00,
2013-06-01 14:35:00,75.0,67.0,29.99,NE,45,10.0,15.0,76,0.00,OVC,,0.00,341.1,WeatherDisplay:10.37,2013-06-01 04:35:00,
2013-06-01 14:40:00,73.6,66.7,29.99,NE,45,10.0,14.0,79,0.00,OVC,,0.00,319.4,WeatherDisplay:10.37,2013-06-01 04:40:00,
2013-06-01 14:45:00,73.4,66.9,29.99,NE,45,9.0,14.0,80,0.00,OVC,,0.00,360.7,WeatherDisplay:10.37,2013-06-01 04:45:00,
2013-06-01 14:50:00,72.9,66.8,29.99,NE,45,7.0,13.0,81,0.00,OVC,,0.00,336.2,WeatherDisplay:10.37,2013-06-01 04:50:00,
2013-06-01 14:55:00,73.0,67.2,29.99,NE,45,9.0,14.0,82,0.00,OVC,,0.00,383.1,WeatherDisplay:10.37,2013-06-01 04:55:00,
2013-06-01 15:00:00,73.0,66.9,29.98,NE,45,5.0,12.0,81,0.00,OVC,,0.00,396.6,WeatherDisplay:10.37,2013-06-01 05:00:00,
2013-06-01 15:05:00,73.4,66.9,29.99,NE,45,7.0,13.0,80,0.00,OVC,,0.00,356.9,WeatherDisplay:10.37,2013-06-01 05:05:00,
2013-06-01 15:10:00,73.0,65.8,29.98,NE,45,10.0,15.0,78,0.00,OVC,,0.00,333.3,WeatherDisplay:10.37,2013-06-01 05:10:00,
2013-06-01 15:15:00,72.9,65.6,29.98,NE,45,6.0,15.0,78,0.00,OVC,,0.00,346.7,WeatherDisplay:10.37,2013-06-01 05:15:00,
2013-06-01 15:20:00,73.1,65.9,29.98,NE,45,7.0,14.0,78,0.00,OVC,,0.00,425.5,WeatherDisplay:10.37,2013-06-01 05:20:00,
2013-06-01 15:25:00,73.5,66.2,29.98,NE,45,3.0,12.0,78,0.00,OVC,,0.00,468.4,WeatherDisplay:10.37,2013-06-01 05:25:00,
2013-06-01 15:30:00,73.9,66.3,29.98,NE,45,8.0,14.0,77,0.00,OVC,,0.00,398.1,WeatherDisplay:10.37,2013-06-01 05:30:00,
2013-06-01 15:35:00,74.7,66.6,29.98,NE,45,7.0,13.0,76,0.00,OVC,,0.00,366.2,WeatherDisplay:10.37,2013-06-01 05:35:00,
2013-06-01 15:40:00,74.3,66.2,29.98,NE,45,9.0,17.0,76,0.00,OVC,,0.00,220.6,WeatherDisplay:10.37,2013-06-01 05:40:00,
2013-06-01 15:45:00,73.6,65.6,29.98,NE,45,9.0,17.0,76,0.00,OVC,,0.00,182.1,WeatherDisplay:10.37,2013-06-01 05:45:00,
2013-06-01 15:50:00,73.4,65.7,29.98,NE,45,8.0,13.0,77,0.00,OVC,,0.00,168.9,WeatherDisplay:10.37,2013-06-01 05:50:00,
2013-06-01 16:00:00,72.9,65.2,29.99,NE,45,5.0,10.0,77,0.00,CLR,,0.00,143.5,WeatherDisplay:10.37,2013-06-01 06:00:00,
2013-06-01 16:05:00,72.7,65.0,29.99,NE,45,7.0,13.0,77,0.00,CLR,,0.00,114.3,WeatherDisplay:10.37,2013-06-01 06:05:00,
2013-06-01 16:10:00,72.1,65.2,29.98,NE,45,7.0,13.0,79,0.00,CLR,,0.00,132.0,WeatherDisplay:10.37,2013-06-01 06:10:00,
2013-06-01 16:15:00,71.8,65.6,29.98,NE,45,5.0,8.0,81,0.00,CLR,,0.00,113.9,WeatherDisplay:10.37,2013-06-01 06:15:00,
2013-06-01 16:20:00,71.8,65.6,29.98,NE,45,6.0,10.0,81,0.00,CLR,,0.00,140.4,WeatherDisplay:10.37,2013-06-01 06:20:00,
2013-06-01 16:25:00,72.0,66.2,29.99,NE,45,7.0,9.0,82,0.00,CLR,,0.00,93.4,WeatherDisplay:10.37,2013-06-01 06:25:00,
2013-06-01 16:30:00,72.0,65.8,29.99,NE,45,5.0,9.0,81,0.00,CLR,,0.00,63.5,WeatherDisplay:10.37,2013-06-01 06:30:00,
2013-06-01 16:35:00,72.1,66.0,29.99,NE,45,5.0,7.0,81,0.00,CLR,,0.00,60.0,WeatherDisplay:10.37,2013-06-01 06:35:00,
2013-06-01 16:40:00,72.1,66.0,29.99,NE,45,2.0,7.0,81,0.00,CLR,,0.00,63.5,WeatherDisplay:10.37,2013-06-01 06:40:00,
2013-06-01 16:45:00,72.1,66.0,29.99,NE,45,3.0,6.0,81,0.00,CLR,,0.00,84.3,WeatherDisplay:10.37,2013-06-01 06:45:00,
2013-06-01 16:50:00,72.1,65.6,29.99,NE,45,5.0,7.0,80,0.00,CLR,,0.00,136.2,WeatherDisplay:10.37,2013-06-01 06:50:00,
2013-06-01 16:55:00,72.5,66.0,29.99,NE,45,2.0,6.0,80,0.00,CLR,,0.00,105.4,WeatherDisplay:10.37,2013-06-01 06:55:00,
2013-06-01 17:00:00,72.6,66.0,29.99,NE,45,5.0,7.0,80,0.00,CLR,,0.00,74.4,WeatherDisplay:10.37,2013-06-01 07:00:00,
2013-06-01 17:05:00,72.2,65.6,29.99,NE,45,5.0,7.0,80,0.00,CLR,,0.00,42.1,WeatherDisplay:10.37,2013-06-01 07:05:00,
2013-06-01 17:10:00,72.0,65.8,30.00,NE,45,3.0,6.0,81,0.00,CLR,,0.00,34.6,WeatherDisplay:10.37,2013-06-01 07:10:00,
2013-06-01 17:15:00,71.8,65.6,30.00,NE,45,3.0,6.0,81,0.00,CLR,,0.00,27.8,WeatherDisplay:10.37,2013-06-01 07:15:00,
2013-06-01 17:20:00,71.6,65.5,30.00,NE,45,3.0,7.0,81,0.00,CLR,,0.00,33.0,WeatherDisplay:10.37,2013-06-01 07:20:00,
2013-06-01 17:25:00,71.4,65.6,30.00,NE,45,5.0,7.0,82,0.00,CLR,,0.00,32.7,WeatherDisplay:10.37,2013-06-01 07:25:00,
2013-06-01 17:30:00,71.1,65.3,30.00,NE,45,5.0,8.0,82,0.00,CLR,,0.00,20.9,WeatherDisplay:10.37,2013-06-01 07:30:00,
2013-06-01 17:35:00,71.0,65.2,30.00,NE,45,3.0,7.0,82,0.00,CLR,,0.00,17.8,WeatherDisplay:10.37,2013-06-01 07:35:00,
2013-06-01 17:40:00,70.7,64.9,30.00,NE,45,2.0,6.0,82,0.00,CLR,,0.00,13.9,WeatherDisplay:10.37,2013-06-01 07:40:00,
2013-06-01 17:45:00,70.3,64.6,30.00,NE,45,1.0,6.0,82,0.00,CLR,,0.00,9.6,WeatherDisplay:10.37,2013-06-01 07:45:00,
2013-06-01 17:50:00,70.0,64.2,30.01,NE,45,1.0,3.0,82,0.00,CLR,,0.00,4.8,WeatherDisplay:10.37,2013-06-01 07:50:00,
2013-06-01 17:55:00,69.6,64.5,30.01,NE,45,1.0,4.0,84,0.00,CLR,,0.00,1.2,WeatherDisplay:10.37,2013-06-01 07:55:00,
2013-06-01 18:00:00,69.1,64.4,30.00,NE,45,1.0,2.0,85,0.00,CLR,,0.00,0.0,WeatherDisplay:10.37,2013-06-01 08:00:00,
2013-06-01 18:05:00,68.7,64.3,30.01,NE,45,0.0,1.0,86,0.00,CLR,,0.00,0.0,WeatherDisplay:10.37,2013-06-01 08:05:00,
2013-06-01 18:10:00,68.4,64.0,30.01,NE,45,0.0,0.0,86,0.00,CLR,,0.00,0.0,WeatherDisplay:10.37,2013-06-01 08:10:00,
2013-06-01 18:15:00,68.4,64.3,30.01,NE,45,0.0,0.0,87,0.00,CLR,,0.00,0.0,WeatherDisplay:10.37,2013-06-01 08:15:00,
2013-06-01 18:20:00,68.4,64.3,30.01,NE,45,0.0,0.0,87,0.00,CLR,,0.00,0.0,WeatherDisplay:10.37,2013-06-01 08:20:00,
2013-06-01 18:25:00,68.4,64.7,30.01,NE,45,0.0,0.0,88,0.00,CLR,,0.00,0.0,WeatherDisplay:10.37,2013-06-01 08:25:00,
2013-06-01 18:30:00,68.4,64.7,30.02,NE,45,2.0,5.0,88,0.00,CLR,,0.00,0.0,WeatherDisplay:10.37,2013-06-01 08:30:00,
2013-06-01 18:35:00,68.5,64.5,30.02,NE,45,2.0,4.0,87,0.00,CLR,,0.00,0.0,WeatherDisplay:10.37,2013-06-01 08:35:00,
2013-06-01 18:40:00,68.7,64.7,30.01,NE,45,3.0,4.0,87,0.00,CLR,,0.00,0.0,WeatherDisplay:10.37,2013-06-01 08:40:00,
2013-06-01 18:45:00,68.7,64.7,30.02,NE,45,3.0,6.0,87,0.00,CLR,,0.00,0.0,WeatherDisplay:10.37,2013-06-01 08:45:00,
2013-06-01 18:50:00,68.5,64.5,30.02,NE,45,6.0,7.0,87,0.00,CLR,,0.00,0.0,WeatherDisplay:10.37,2013-06-01 08:50:00,
2013-06-01 19:00:00,68.9,64.9,30.03,NE,45,6.0,8.0,87,0.00,CLR,,0.00,0.0,WeatherDisplay:10.37,2013-06-01 09:00:00,
2013-06-01 19:05:00,68.9,64.5,30.02,NE,45,5.0,8.0,86,0.00,CLR,,0.00,0.0,WeatherDisplay:10.37,2013-06-01 09:05:00,
2013-06-01 19:10:00,68.2,64.5,30.03,NE,45,5.0,7.0,88,0.00,CLR,,0.00,0.0,WeatherDisplay:10.37,2013-06-01 09:10:00,
2013-06-01 19:15:00,67.7,64.6,30.03,NE,45,5.0,10.0,90,0.00,CLR,,0.00,0.0,WeatherDisplay:10.37,2013-06-01 09:15:00,
2013-06-01 19:20:00,67.1,64.7,30.03,NE,45,3.0,8.0,92,0.00,CLR,,0.00,0.0,WeatherDisplay:10.37,2013-06-01 09:20:00,
2013-06-01 19:25:00,66.7,64.7,30.03,NE,45,3.0,6.0,93,0.00,CLR,,0.00,0.0,WeatherDisplay:10.37,2013-06-01 09:25:00,
2013-06-01 19:30:00,66.7,65.0,30.03,NE,45,2.0,6.0,94,0.00,CLR,,0.00,0.0,WeatherDisplay:10.37,2013-06-01 09:30:00,
2013-06-01 19:35:00,66.6,64.8,30.03,NE,45,2.0,4.0,94,0.00,CLR,,0.00,0.0,WeatherDisplay:10.37,2013-06-01 09:35:00,
2013-06-01 19:45:00,66.4,64.9,30.03,NE,45,1.0,4.0,95,0.00,CLR,,0.00,0.0,WeatherDisplay:10.37,2013-06-01 09:45:00,
2013-06-01 19:50:00,66.2,64.7,30.04,NE,45,1.0,3.0,95,0.00,CLR,,0.00,0.0,WeatherDisplay:10.37,2013-06-01 09:50:00,
2013-06-01 19:55:00,66.2,64.7,30.04,NE,45,0.0,4.0,95,0.00,CLR,,0.00,0.0,WeatherDisplay:10.37,2013-06-01 09:55:00,
2013-06-01 20:00:00,65.8,64.7,30.04,NE,45,0.0,2.0,96,0.00,CLR,,0.00,0.0,WeatherDisplay:10.37,2013-06-01 10:00:00,
2013-06-01 20:05:00,65.7,64.5,30.05,NE,45,0.0,0.0,96,0.00,CLR,,0.00,0.0,WeatherDisplay:10.37,2013-06-01 10:05:00,
2013-06-01 20:10:00,65.5,64.3,30.05,NE,45,0.0,0.0,96,0.00,CLR,,0.00,0.0,WeatherDisplay:10.37,2013-06-01 10:10:00,
2013-06-01 20:15:00,65.3,64.1,30.05,NE,45,0.0,0.0,96,0.00,CLR,,0.00,0.0,WeatherDisplay:10.37,2013-06-01 10:15:00,
2013-06-01 20:20:00,64.9,63.8,30.05,NE,45,0.0,0.0,96,0.00,CLR,,0.00,0.0,WeatherDisplay:10.37,2013-06-01 10:20:00,
2013-06-01 20:25:00,64.9,63.8,30.05,NE,45,0.0,2.0,96,0.00,CLR,,0.00,0.0,WeatherDisplay:10.37,2013-06-01 10:25:00,
2013-06-01 20:30:00,64.9,63.8,30.05,NE,45,0.0,0.0,96,0.00,CLR,,0.00,0.0,WeatherDisplay:10.37,2013-06-01 10:30:00,
2013-06-01 20:35:00,64.8,63.9,30.05,NE,45,0.0,2.0,97,0.00,CLR,,0.00,0.0,WeatherDisplay:10.37,2013-06-01 10:35:00,
2013-06-01 20:40:00,64.7,63.8,30.05,NE,45,0.0,1.0,97,0.00,CLR,,0.00,0.0,WeatherDisplay:10.37,2013-06-01 10:40:00,
2013-06-01 20:45:00,64.6,63.7,30.05,NE,45,1.0,3.0,97,0.00,CLR,,0.00,0.0,WeatherDisplay:10.37,2013-06-01 10:45:00,
2013-06-01 20:50:00,64.4,63.5,30.04,NE,45,0.0,3.0,97,0.00,CLR,,0.00,0.0,WeatherDisplay:10.37,2013-06-01 10:50:00,
2013-06-01 20:55:00,64.2,63.4,30.05,NE,45,0.0,0.0,97,0.00,CLR,,0.00,0.0,WeatherDisplay:10.37,2013-06-01 10:55:00,
2013-06-01 21:00:00,63.7,62.9,30.05,NE,45,0.0,0.0,97,0.00,CLR,,0.00,0.0,WeatherDisplay:10.37,2013-06-01 11:00:00,
2013-06-01 21:05:00,63.5,62.6,30.05,NE,45,0.0,0.0,97,0.00,CLR,,0.00,0.0,WeatherDisplay:10.37,2013-06-01 11:05:00,
2013-06-01 21:10:00,63.3,62.5,30.05,NE,45,0.0,0.0,97,0.00,CLR,,0.00,0.0,WeatherDisplay:10.37,2013-06-01 11:10:00,
2013-06-01 21:15:00,63.5,62.6,30.05,NE,45,0.0,0.0,97,0.00,CLR,,0.00,0.0,WeatherDisplay:10.37,2013-06-01 11:15:00,
2013-06-01 21:20:00,63.2,62.4,30.05,NE,45,0.0,0.0,97,0.00,CLR,,0.00,0.0,WeatherDisplay:10.37,2013-06-01 11:20:00,
2013-06-01 21:30:00,62.2,61.7,30.05,NE,45,0.0,0.0,98,0.00,CLR,,0.00,0.0,WeatherDisplay:10.37,2013-06-01 11:30:00,
2013-06-01 21:40:00,62.5,61.6,30.05,NE,45,0.0,0.0,97,0.00,CLR,,0.00,0.0,WeatherDisplay:10.37,2013-06-01 11:40:00,
2013-06-01 21:45:00,62.1,61.5,30.04,NE,45,0.0,0.0,98,0.00,CLR,,0.00,0.0,WeatherDisplay:10.37,2013-06-01 11:45:00,
2013-06-01 21:50:00,62.1,61.5,30.04,NE,45,0.0,0.0,98,0.00,CLR,,0.00,0.0,WeatherDisplay:10.37,2013-06-01 11:50:00,
2013-06-01 21:55:00,61.9,61.3,30.04,NE,45,0.0,0.0,98,0.00,CLR,,0.00,0.0,WeatherDisplay:10.37,2013-06-01 11:55:00,
2013-06-01 22:00:00,61.9,61.3,30.04,NE,45,0.0,0.0,98,0.00,CLR,,0.00,0.0,WeatherDisplay:10.37,2013-06-01 12:00:00,
2013-06-01 22:05:00,61.9,61.4,30.04,NE,45,0.0,0.0,98,0.00,CLR,,0.00,0.0,WeatherDisplay:10.37,2013-06-01 12:05:00,
2013-06-01 22:10:00,61.9,61.3,30.04,NE,45,0.0,0.0,98,0.00,CLR,,0.00,0.0,WeatherDisplay:10.37,2013-06-01 12:10:00,
2013-06-01 22:15:00,61.5,61.0,30.04,NE,45,0.0,0.0,98,0.00,CLR,,0.00,0.0,WeatherDisplay:10.37,2013-06-01 12:15:00,
2013-06-01 22:20:00,61.5,61.0,30.04,NE,45,0.0,0.0,98,0.00,CLR,,0.00,0.0,WeatherDisplay:10.37,2013-06-01 12:20:00,
2013-06-01 22:25:00,61.3,60.8,30.03,NE,45,0.0,0.0,98,0.00,CLR,,0.00,0.0,WeatherDisplay:10.37,2013-06-01 12:25:00,
2013-06-01 22:30:00,61.0,60.4,30.04,NE,45,0.0,0.0,98,0.00,CLR,,0.00,0.0,WeatherDisplay:10.37,2013-06-01 12:30:00,
2013-06-01 22:35:00,60.9,60.4,30.04,NE,45,0.0,0.0,98,0.00,CLR,,0.00,0.0,WeatherDisplay:10.37,2013-06-01 12:35:00,
2013-06-01 22:40:00,61.0,60.4,30.04,NE,45,0.0,0.0,98,0.00,CLR,,0.00,0.0,WeatherDisplay:10.37,2013-06-01 12:40:00,
2013-06-01 22:45:00,61.2,60.6,30.03,NE,45,0.0,0.0,98,0.00,CLR,,0.00,0.0,WeatherDisplay:10.37,2013-06-01 12:45:00,
2013-06-01 22:50:00,61.2,60.7,30.03,NE,45,0.0,0.0,98,0.00,CLR,,0.00,0.0,WeatherDisplay:10.37,2013-06-01 12:50:00,
2013-06-01 22:55:00,61.2,60.6,30.03,NE,45,0.0,0.0,98,0.00,CLR,,0.00,0.0,WeatherDisplay:10.37,2013-06-01 12:55:00,
2013-06-01 23:00:00,61.3,60.8,30.03,NE,45,0.0,0.0,98,0.00,CLR,,0.00,0.0,WeatherDisplay:10.37,2013-06-01 13:00:00,
2013-06-01 23:05:00,61.2,60.6,30.03,NE,45,0.0,0.0,98,0.00,CLR,,0.00,0.0,WeatherDisplay:10.37,2013-06-01 13:05:00,
2013-06-01 23:10:00,61.2,60.6,30.03,NE,45,0.0,0.0,98,0.00,CLR,,0.00,0.0,WeatherDisplay:10.37,2013-06-01 13:10:00,
2013-06-01 23:15:00,61.6,61.0,30.03,NE,45,0.0,0.0,98,0.00,CLR,,0.00,0.0,WeatherDisplay:10.37,2013-06-01 13:15:00,
2013-06-01 23:20:00,61.0,60.4,30.02,NE,45,0.0,0.0,98,0.00,CLR,,0.00,0.0,WeatherDisplay:10.37,2013-06-01 13:20:00,
2013-06-01 23:25:00,60.8,60.2,30.02,NE,45,0.0,0.0,98,0.00,CLR,,0.00,0.0,WeatherDisplay:10.37,2013-06-01 13:25:00,
2013-06-01 23:30:00,60.6,60.3,30.02,NE,45,0.0,0.0,99,0.00,CLR,,0.00,0.0,WeatherDisplay:10.37,2013-06-01 13:30:00,
2013-06-01 23:40:00,60.3,60.0,30.02,NE,45,0.0,0.0,99,0.00,CLR,,0.00,0.0,WeatherDisplay:10.37,2013-06-01 13:40:00,
2013-06-01 23:45:00,60.1,59.8,30.02,NE,45,0.0,0.0,99,0.00,CLR,,0.00,0.0,WeatherDisplay:10.37,2013-06-01 13:45:00,
2013-06-01 23:50:00,60.2,59.9,30.01,NE,45,0.0,0.0,99,0.00,CLR,,0.00,0.0,WeatherDisplay:10.37,2013-06-01 13:50:00,
2013-06-01 23:55:00,60.0,59.7,30.01,NE,45,0.0,0.0,99,0.00,CLR,,0.00,0.0,WeatherDisplay:10.37,2013-06-01 13:55:00,